[[{"header":{"parameterUnit":"m.s-1","parameterCategory":2,"la1":30.2991,"la2":30.254,"lo1":-89.0895,"lo2":-89.0444,"dy":0.0017,"dx":0.0017,"nx":28,"ny":28,"refTime":"2023-04-20T21:00:00:Z","depth":"0","parameterNumber":2,"parameterNumberName":"U-component_of_CURRENTS"},"data":[0,0,0,0,0,0,0,0,0,0,0,0,0,0,0,0,0,0,0,0,0,0,0,0,0,0,0,0,0,0,0,0,0,0,0,0,0,0,0,0,0,0,0,0,0,0,0,0,0,0,0,0,0,0,0,0,0,0,0.3544,0.3545,0,0.3551,0.3551,0.355,0.3591,0.3593,0.3595,0.3596,0.3596,0.3594,0.3593,0,0,0,0,0,0,0,0,0,0,0,0,0,0.3499,0.3499,0.3544,0.3545,0.3545,0.3551,0.3551,0.355,0.3591,0.3593,0.3595,0.3597,0.3596,0.3595,0.3593,0,0,0,0,0,0,0,0,0,0,0,0,0,0.3506,0.3499,0.3544,0.3572,0.3575,0.3551,0.3551,0.355,0.3591,0.3593,0.3596,0.3598,0.3597,0.3595,0.3593,0.3529,0,0,0.3585,0.3584,0,0,0,0,0,0,0,0,0.3506,0.3507,0.3567,0.357,0.3573,0.3579,0.3535,0.3545,0.359,0.3577,0.3596,0.3599,0.3592,0.3591,0.3576,0.3529,0.3529,0.3585,0.3584,0.3583,0.3582,0,0,0,0,0,0,0,0.3506,0.3507,0.3539,0.3568,0.3572,0.3562,0.3565,0.3536,0.3565,0.3578,0.3583,0.3595,0.3594,0.3578,0.3577,0.3529,0.3585,0.3583,0.3582,0.3581,0.3483,0.3482,0,0,0,0,0,0,0.352,0.3506,0.3539,0.354,0.3553,0.3561,0.3565,0.3569,0.3566,0.357,0.3593,0.3597,0.3581,0.3579,0.3577,0.3563,0.3583,0.3581,0.3579,0.3484,0.3483,0.3482,0,0,0,0,0,0,0.3519,0.3522,0.3539,0.353,0.3532,0.3561,0.3564,0.3568,0.3569,0.3578,0.3581,0.3593,0.3583,0.358,0.3553,0.3561,0.358,0.3577,0.3486,0.3484,0.3482,0.3495,0,0,0,0,0,0,0.3517,0.3521,0.3513,0.3531,0.3534,0.3521,0.3562,0.3567,0.3575,0.358,0.3578,0.358,0.3585,0.3556,0.3551,0.3558,0.3576,0.3487,0.3485,0.3483,0.3496,0.3494,0.3492,0,0,0,0,0,0.3515,0.3484,0.3512,0.3516,0.3527,0.3521,0.3519,0.3543,0.3573,0.3556,0.3561,0.3581,0.3539,0.3552,0.3547,0.3554,0.3488,0.3486,0.3483,0.3497,0.3494,0.3492,0,0,0,0,0,0,0.3449,0.3487,0.3518,0.3499,0.3516,0.3531,0.3511,0.354,0.3528,0.3534,0.3552,0.3552,0.354,0.3527,0.3542,0.3516,0.3521,0.3517,0.3534,0.3531,0.3529,0.3534,0.3574,0,0,0,0,0,0.3436,0.3429,0.3469,0.3452,0.3459,0.3489,0.3487,0.3509,0.3513,0.3511,0.3519,0.3517,0.3516,0.351,0.3498,0.3465,0.3455,0.3467,0.3465,0.3464,0.3461,0.343,0.3426,0.3473,0.3473,0.3473,0,0,0.3407,0.3426,0.3422,0.3439,0.345,0.3458,0.3491,0.3484,0.3499,0.3509,0.3506,0.3507,0.3506,0.3488,0.3481,0.3482,0.3446,0.346,0.346,0.3457,0.3427,0.3423,0.3419,0.3471,0.3471,0.3471,0,0,0.3351,0.3362,0.335,0.3366,0.3392,0.3412,0.3418,0.3439,0.3453,0.3442,0.3472,0.3473,0.345,0.3466,0.3469,0.3437,0.344,0.3434,0.3425,0.3396,0.3392,0.3389,0.3383,0.3379,0.3429,0.3429,0.3429,0,0.3319,0.3322,0.3339,0.3343,0.3359,0.34,0.3403,0.3413,0.3426,0.3421,0.344,0.3426,0.3445,0.3439,0.3451,0.3438,0.3419,0.3443,0.3395,0.3391,0.3388,0.3382,0.3378,0.343,0.343,0.343,0.343,0,0.3277,0.3284,0.327,0.3306,0.3312,0.331,0.3353,0.3354,0.3379,0.339,0.3379,0.3393,0.3384,0.3404,0.3428,0.3415,0.3411,0.3403,0.3409,0.3384,0.338,0.3375,0.343,0.343,0.343,0.343,0,0,0.3207,0.3239,0.3239,0.3259,0.3298,0.3298,0.3312,0.3326,0.3321,0.3333,0.331,0.3351,0.335,0.3354,0.338,0.3379,0.3373,0.3385,0.3384,0.3393,0.3314,0.308,0.3053,0.3348,0.3347,0.3346,0.3327,0,0.3181,0.3183,0.3208,0.3216,0.3226,0.3266,0.3274,0.3286,0.3288,0.3265,0.3284,0.3273,0.3333,0.3331,0.3336,0.3351,0.3357,0.338,0.3324,0.3323,0.3128,0.3037,0.2821,0.2762,0.3322,0.3321,0.332,0,0.3145,0.3157,0.3157,0.3189,0.3194,0.32,0.3207,0.3218,0.3202,0.32,0.3182,0.3185,0.3197,0.3243,0.3254,0.3257,0.3294,0.3315,0.3313,0.3083,0.3076,0.2871,0.2732,0.2591,0.3313,0.3313,0.3314,0,0.3094,0.3121,0.312,0.3134,0.3171,0.3167,0.3182,0.318,0.3173,0.3145,0.3113,0.3111,0.3096,0.3126,0.3175,0.321,0.3165,0.3212,0.3044,0.3031,0.2826,0.2792,0.2546,0.3222,0.3222,0.3222,0.3222,0,0.3057,0.3055,0.3094,0.3094,0.3091,0.3123,0.3098,0.3114,0.309,0.3049,0.3067,0.3026,0.3063,0.3041,0.3114,0.3018,0.3109,0.3008,0.2981,0.282,0.2788,0.2639,0.2684,0.3221,0.3222,0.3222,0.3222,0,0.299,0.3018,0.3023,0.3056,0.3065,0.3056,0.3063,0.3042,0.3032,0.2969,0.2958,0.2937,0.2903,0.2928,0.2956,0.2892,0.275,0.2843,0.2649,0.2594,0.2231,0.2287,0.2056,0.2018,0.2612,0.2605,0.26,0,0.295,0.2949,0.2988,0.2993,0.3003,0.3001,0.3001,0.3012,0.2983,0.2917,0.2875,0.2815,0.2774,0.2668,0.2562,0.2532,0.2568,0.2257,0.2264,0.2118,0.2167,0.221,0.2204,0.2042,0.2032,0.2025,0.2018,0,0.2892,0.2909,0.2924,0.294,0.2943,0.2935,0.2924,0.2895,0.288,0.2825,0.274,0.2699,0.2538,0.2335,0.2194,0.2149,0.2056,0.2087,0.1988,0.1703,0.1687,0.1667,0.2194,0.1949,0.1956,0.1961,0.1965,0.1968,0.2858,0.2855,0.2887,0.2893,0.2893,0.286,0.2811,0.2789,0.273,0.2592,0.2613,0.2462,0.2166,0.1923,0.1816,0.1339,0.1627,0.1228,0.1322,0.1388,0.1265,0.161,0.1284,0.1286,0.1289,0.1291,0.1293,0,0.2826,0.2835,0.2841,0.2835,0.2799,0.2817,0.2753,0.2663,0.2557,0.2448,0.2356,0.1999,0.1639,0.1339,0.0778,0.0587,0.0647,0.0533,0.0584,0.0636,0.0941,0.082,0.0308,0.0309,0.0309,0.0309,0.0309,0.0309,0.2819,0.2816,0.2818,0.2757,0.2731,0.2615,0.2555,0.2421,0.2306,0.2023,0.1791,0.1704,0.124,0.0584,0.0049,0.0009,0.0071,0.0013,0.0175,0.0398,0.0472,0.0543,0.0428,-0.0156,-0.0156,-0.0229,-0.023,-0.023]},{"header":{"parameterUnit":"m.s-1","parameterCategory":2,"la1":30.2991,"la2":30.254,"lo1":-89.0895,"lo2":-89.0444,"dy":0.0017,"dx":0.0017,"nx":28,"ny":28,"refTime":"2023-04-20T21:00:00:Z","depth":"0","parameterNumber":3,"parameterNumberName":"V-component_of_CURRENTS"},"data":[0,0,0,0,0,0,0,0,0,0,0,0,0,0,0,0,0,0,0,0,0,0,0,0,0,0,0,0,0,0,0,0,0,0,0,0,0,0,0,0,0,0,0,0,0,0,0,0,0,0,0,0,0,0,0,0,0,0,-0.0522,-0.0523,0,-0.0567,-0.0567,-0.0567,-0.0553,-0.0552,-0.0552,-0.0551,-0.0534,-0.0534,-0.0534,0,0,0,0,0,0,0,0,0,0,0,0,0,-0.0414,-0.0415,-0.0522,-0.0523,-0.0524,-0.0567,-0.0567,-0.0567,-0.0553,-0.0552,-0.0552,-0.0551,-0.0534,-0.0534,-0.0534,0,0,0,0,0,0,0,0,0,0,0,0,0,-0.0454,-0.0416,-0.0521,-0.0526,-0.0527,-0.0567,-0.0567,-0.0567,-0.0553,-0.0552,-0.0551,-0.0551,-0.0534,-0.0534,-0.0534,-0.0547,0,0,-0.0534,-0.0534,0,0,0,0,0,0,0,0,-0.0452,-0.0458,-0.0524,-0.0526,-0.0527,-0.0558,-0.0523,-0.0559,-0.0553,-0.0537,-0.0551,-0.0551,-0.0541,-0.054,-0.0543,-0.0546,-0.0546,-0.0534,-0.0534,-0.0534,-0.0534,0,0,0,0,0,0,0,-0.0449,-0.0456,-0.0534,-0.0526,-0.0528,-0.0523,-0.0527,-0.0529,-0.0537,-0.0538,-0.0539,-0.0553,-0.054,-0.0543,-0.0542,-0.0545,-0.0534,-0.0534,-0.0534,-0.0534,-0.0546,-0.0546,0,0,0,0,0,0,-0.0457,-0.0453,-0.0532,-0.0536,-0.0494,-0.0526,-0.0531,-0.0544,-0.0538,-0.0539,-0.0554,-0.0552,-0.0543,-0.0542,-0.0542,-0.0534,-0.0534,-0.0534,-0.0534,-0.0545,-0.0546,-0.0546,0,0,0,0,0,0,-0.0454,-0.0463,-0.0531,-0.05,-0.0509,-0.0529,-0.0544,-0.0546,-0.0549,-0.0551,-0.0549,-0.0556,-0.0543,-0.0542,-0.0545,-0.0534,-0.0534,-0.0534,-0.0545,-0.0545,-0.0546,-0.0532,0,0,0,0,0,0,-0.0451,-0.0462,-0.0467,-0.05,-0.0511,-0.0552,-0.0546,-0.0547,-0.0561,-0.056,-0.0552,-0.055,-0.0542,-0.0545,-0.0545,-0.0533,-0.0534,-0.0544,-0.0545,-0.0546,-0.0532,-0.0532,-0.0532,0,0,0,0,0,-0.0447,-0.045,-0.0466,-0.0476,-0.0519,-0.0553,-0.0556,-0.0565,-0.0562,-0.0564,-0.0561,-0.055,-0.0549,-0.0546,-0.0545,-0.0533,-0.0544,-0.0545,-0.0546,-0.0532,-0.0532,-0.0532,0,0,0,0,0,0,-0.0399,-0.0451,-0.0469,-0.0486,-0.0521,-0.0552,-0.0553,-0.0568,-0.0569,-0.0562,-0.0559,-0.0557,-0.0553,-0.0554,-0.055,-0.0541,-0.0543,-0.0544,-0.0533,-0.0533,-0.0533,-0.0505,-0.0534,0,0,0,0,0,-0.0397,-0.0411,-0.0466,-0.0477,-0.0496,-0.0528,-0.054,-0.0554,-0.0567,-0.0566,-0.0566,-0.0563,-0.0558,-0.0554,-0.0552,-0.0551,-0.051,-0.0544,-0.0544,-0.0544,-0.0522,-0.048,-0.0473,-0.0549,-0.0549,-0.0548,0,0,-0.0381,-0.0411,-0.0419,-0.0468,-0.0491,-0.0512,-0.0531,-0.0553,-0.0559,-0.0565,-0.0561,-0.0565,-0.056,-0.0554,-0.0552,-0.055,-0.0495,-0.0545,-0.0544,-0.0522,-0.0479,-0.0472,-0.0465,-0.0549,-0.0549,-0.0549,0,0,-0.0352,-0.0386,-0.039,-0.0422,-0.0469,-0.0494,-0.0504,-0.0544,-0.0548,-0.0562,-0.056,-0.0556,-0.0561,-0.0547,-0.0541,-0.0543,-0.0499,-0.055,-0.0521,-0.0481,-0.0473,-0.0466,-0.0372,-0.0357,-0.0547,-0.0547,-0.0547,0,-0.033,-0.0351,-0.0395,-0.0411,-0.0433,-0.0487,-0.0497,-0.0515,-0.0547,-0.0542,-0.0556,-0.0543,-0.0549,-0.052,-0.0524,-0.0538,-0.0493,-0.052,-0.0477,-0.047,-0.0463,-0.0368,-0.0352,-0.0546,-0.0546,-0.0546,-0.0546,0,-0.0313,-0.0332,-0.0337,-0.0377,-0.0402,-0.0424,-0.0469,-0.0484,-0.0504,-0.0513,-0.0501,-0.0511,-0.0493,-0.0505,-0.0515,-0.0472,-0.0447,-0.0483,-0.047,-0.0454,-0.0356,-0.0338,-0.0545,-0.0545,-0.0546,-0.0546,0,0,-0.0264,-0.0315,-0.0318,-0.0334,-0.0391,-0.0411,-0.0422,-0.0444,-0.0433,-0.0458,-0.0426,-0.0438,-0.0437,-0.0431,-0.0443,-0.0419,-0.0335,-0.043,-0.0428,-0.0322,-0.0197,-0.0159,-0.0136,-0.0368,-0.0365,-0.0364,-0.0136,0,-0.0241,-0.026,-0.029,-0.0306,-0.0327,-0.0372,-0.0374,-0.0394,-0.0406,-0.0389,-0.0391,-0.037,-0.041,-0.0397,-0.0379,-0.0352,-0.0294,-0.0389,-0.0241,-0.0235,-0.0193,-0.0118,-0.0087,0.0119,-0.0119,-0.0116,-0.0114,0,-0.0222,-0.024,-0.025,-0.028,-0.029,-0.0298,-0.0311,-0.032,-0.031,-0.031,-0.0288,-0.0289,-0.0245,-0.0296,-0.0198,-0.0257,-0.0213,-0.0193,-0.0184,-0.0139,-0.0166,0.0055,0.0159,0.0173,-0.0087,-0.0089,-0.0091,0,-0.0183,-0.0213,-0.0219,-0.0235,-0.0273,-0.0269,-0.0282,-0.0286,-0.0278,-0.0248,-0.0222,-0.0183,-0.0146,-0.0105,-0.0068,-0.0123,0.0052,-0.0018,0.0078,0.0084,0.0147,0.0153,0.0294,0.0078,0.0078,0.0077,0.0076,0,-0.0163,-0.0164,-0.02,-0.0208,-0.0201,-0.0233,-0.0212,-0.022,-0.0199,-0.0163,-0.0169,-0.0119,-0.0104,-0.0021,0.0001,0.0121,0.0123,0.0129,0.0148,0.0154,0.0158,0.0198,0.0182,0.0086,0.0084,0.0082,0.0081,0,-0.0118,-0.0147,-0.0153,-0.018,-0.0187,-0.0178,-0.0181,-0.0161,-0.0148,-0.0095,-0.0077,-0.0033,0.0082,0.0131,0.0229,0.0232,0.0364,0.0361,0.0396,0.0413,0.0476,0.0459,0.0655,0.0708,0.0518,0.052,0.0522,0,-0.0089,-0.0094,-0.0125,-0.0127,-0.0137,-0.0134,-0.0129,-0.0133,-0.0108,-0.004,0.0001,0.0118,0.0211,0.0395,0.0443,0.0566,0.0524,0.0631,0.051,0.0532,0.0527,0.0499,0.0526,0.0626,0.0629,0.0631,0.0633,0,-0.0034,-0.0051,-0.0062,-0.0076,-0.0077,-0.0074,-0.0063,-0.0036,-0.0019,0.0049,0.0152,0.0237,0.0405,0.0551,0.0687,0.0717,0.0659,0.0678,0.0687,0.0633,0.063,0.0671,0.0453,0.0652,0.065,0.0649,0.0648,0.0647,0.0016,0.0015,-0.0013,-0.0022,-0.0022,-0.0008,0.0024,0.0059,0.013,0.0254,0.0287,0.0458,0.0603,0.0802,0.084,0.0893,0.0851,0.0862,0.0854,0.0835,0.0839,0.069,0.0891,0.0891,0.089,0.089,0.0889,0,0.0059,0.0042,0.0041,0.0029,0.0048,0.003,0.0073,0.0132,0.0249,0.0373,0.0497,0.0715,0.0881,0.0961,0.1042,0.1055,0.1029,0.1041,0.0997,0.1025,0.0899,0.085,0.1066,0.1066,0.1066,0.1066,0.1066,0.1066,0.0076,0.007,0.0056,0.0088,0.0097,0.0147,0.0186,0.0283,0.0383,0.059,0.0742,0.0848,0.0912,0.105,0.1118,0.113,0.1155,0.1153,0.1171,0.1037,0.1017,0.0999,0.0949,0.1182,0.1182,0.13,0.1301,0.1302]}],[{"header":{"parameterUnit":"m.s-1","parameterCategory":2,"la1":30.2991,"la2":30.254,"lo1":-89.0895,"lo2":-89.0444,"dy":0.0017,"dx":0.0017,"nx":28,"ny":28,"refTime":"2023-04-20T21:00:00:Z","depth":"2","parameterNumber":2,"parameterNumberName":"U-component_of_CURRENTS"},"data":[0,0,0,0,0,0,0,0,0,0,0,0,0,0,0,0,0,0,0,0,0,0,0,0,0,0,0,0,0,0,0,0,0,0,0,0,0,0,0,0,0,0,0,0,0,0,0,0,0,0,0,0,0,0,0,0,0,0,0.157,0.157,0,0.1516,0.1515,0.1514,0.1542,0.1543,0.1545,0.1546,0.1578,0.1577,0.1577,0,0,0,0,0,0,0,0,0,0,0,0,0,0.1648,0.1647,0.157,0.157,0.1569,0.1516,0.1515,0.1514,0.1541,0.1543,0.1545,0.1547,0.1578,0.1577,0.1577,0,0,0,0,0,0,0,0,0,0,0,0,0,0.1604,0.1646,0.157,0.1578,0.1578,0.1516,0.1515,0.1514,0.1541,0.1543,0.1546,0.1548,0.1578,0.1577,0.1576,0.1522,0,0,0.1573,0.1573,0,0,0,0,0,0,0,0,0.1607,0.1601,0.1577,0.1577,0.1578,0.154,0.1554,0.1522,0.154,0.1553,0.1546,0.1549,0.1572,0.1572,0.1553,0.1524,0.1525,0.1573,0.1573,0.1572,0.1572,0,0,0,0,0,0,0,0.161,0.1603,0.1547,0.1577,0.1577,0.1567,0.1564,0.1547,0.155,0.1552,0.1555,0.1551,0.1573,0.1553,0.1554,0.1526,0.1573,0.1572,0.1572,0.1571,0.1643,0.1645,0,0,0,0,0,0,0.162,0.1606,0.1549,0.1545,0.16,0.1564,0.156,0.1548,0.1549,0.1551,0.1549,0.1552,0.1554,0.1555,0.1555,0.1621,0.1572,0.1571,0.1571,0.164,0.1643,0.1646,0,0,0,0,0,0,0.1621,0.1615,0.1551,0.1577,0.1568,0.1561,0.1546,0.1546,0.1574,0.1545,0.1549,0.1584,0.1556,0.1557,0.1588,0.1618,0.1571,0.157,0.1637,0.1641,0.1645,0.1671,0,0,0,0,0,0,0.1624,0.1615,0.1628,0.1577,0.1567,0.1552,0.1544,0.1543,0.1566,0.1571,0.1576,0.1578,0.1558,0.159,0.1587,0.1616,0.1569,0.1634,0.1639,0.1643,0.1667,0.1675,0.1682,0,0,0,0,0,0.1626,0.1621,0.1628,0.1623,0.1578,0.1553,0.1548,0.1549,0.1566,0.1583,0.1593,0.158,0.1619,0.159,0.1586,0.1616,0.1632,0.1638,0.1643,0.1663,0.1673,0.1682,0,0,0,0,0,0,0.1654,0.1621,0.1629,0.1614,0.1608,0.156,0.157,0.1573,0.1588,0.1606,0.1591,0.1593,0.164,0.163,0.1599,0.1658,0.1631,0.1636,0.1648,0.1658,0.1665,0.1684,0.1568,0,0,0,0,0,0.1666,0.166,0.1634,0.1628,0.163,0.1612,0.161,0.161,0.1605,0.1616,0.1619,0.1634,0.1648,0.1657,0.1666,0.1678,0.169,0.1707,0.1715,0.1721,0.1739,0.1799,0.1813,0.1664,0.1664,0.1664,0,0,0.1671,0.1656,0.1653,0.1636,0.1629,0.1617,0.1618,0.1623,0.1626,0.1615,0.1641,0.1661,0.1663,0.1687,0.1708,0.1687,0.1765,0.1728,0.1732,0.1748,0.1806,0.182,0.1833,0.1668,0.1667,0.1667,0,0,0.166,0.1674,0.1664,0.1662,0.1664,0.1649,0.1666,0.1651,0.1673,0.1685,0.1697,0.1747,0.1741,0.176,0.1763,0.1823,0.181,0.1832,0.1869,0.1926,0.1938,0.1949,0.1954,0.1965,0.1826,0.1826,0.1826,0,0.1671,0.1652,0.1661,0.1652,0.1652,0.1671,0.1664,0.1672,0.1675,0.1697,0.1711,0.1759,0.1777,0.181,0.1845,0.1839,0.1852,0.1822,0.1934,0.1945,0.1956,0.1958,0.197,0.1828,0.1828,0.1828,0.1828,0,0.1645,0.1644,0.1642,0.1637,0.1645,0.1644,0.1656,0.1689,0.172,0.1725,0.1793,0.182,0.1855,0.1875,0.1876,0.1962,0.1939,0.1939,0.1902,0.1972,0.197,0.1982,0.1831,0.183,0.183,0.1829,0,0,0.1624,0.1621,0.1627,0.1629,0.1642,0.1639,0.1669,0.1692,0.1718,0.1765,0.1797,0.1871,0.1914,0.1928,0.195,0.2009,0.2099,0.2015,0.2017,0.2003,0.2193,0.1904,0.1889,0.2117,0.212,0.2122,0.2149,0,0.1605,0.1585,0.1593,0.1592,0.1585,0.1623,0.1641,0.1678,0.1717,0.1756,0.183,0.1874,0.192,0.1953,0.2027,0.2072,0.2138,0.209,0.2143,0.2144,0.1865,0.1896,0.1709,0.1694,0.216,0.2162,0.2164,0,0.1575,0.1569,0.1563,0.1573,0.1578,0.159,0.1643,0.166,0.1725,0.1761,0.1835,0.1878,0.1976,0.2012,0.2144,0.2109,0.2181,0.2218,0.2219,0.1952,0.1877,0.1708,0.1698,0.2183,0.2182,0.218,0.2179,0,0.1554,0.1548,0.155,0.1553,0.1568,0.1598,0.162,0.1675,0.1699,0.1778,0.1798,0.1904,0.1955,0.2071,0.2166,0.2169,0.2288,0.2287,0.2096,0.2075,0.1926,0.1883,0.2423,0.2423,0.2422,0.2422,0.2422,0,0.1516,0.1519,0.1549,0.155,0.1573,0.1593,0.1632,0.1667,0.1712,0.1736,0.1815,0.1848,0.1986,0.2057,0.2159,0.2126,0.2287,0.2099,0.2065,0.1921,0.188,0.2323,0.2311,0.2423,0.2423,0.2423,0.2423,0,0.1481,0.1499,0.1505,0.1541,0.1562,0.1586,0.1633,0.1647,0.1694,0.1726,0.1753,0.1821,0.1892,0.1989,0.2139,0.2059,0.2098,0.2076,0.1851,0.1785,0.1848,0.1838,0.1816,0.1807,0.1798,0.1791,0.1785,0,0.1444,0.1448,0.1508,0.1528,0.1552,0.1592,0.1611,0.1653,0.1656,0.1707,0.1706,0.1772,0.177,0.1783,0.1701,0.1704,0.1972,0.1512,0.1465,0.1818,0.179,0.1793,0.1794,0.1303,0.1293,0.1286,0.128,0,0.138,0.1431,0.1448,0.1495,0.1531,0.1549,0.1576,0.1566,0.1604,0.1602,0.1592,0.1584,0.1511,0.1343,0.126,0.1269,0.1462,0.1338,0.1836,0.1425,0.1319,0.1294,0.1317,0.1211,0.1218,0.1223,0.1227,0.123,0.1349,0.136,0.1406,0.1446,0.1486,0.1485,0.1471,0.1459,0.1429,0.1363,0.1417,0.1267,0.1167,0.0839,0.0841,0.0807,0.0915,0.0904,0.0937,0.0976,0.0852,0.073,0.0489,0.0491,0.0493,0.0495,0.0497,0,0.1287,0.1321,0.1343,0.1374,0.1375,0.1448,0.1425,0.1358,0.1277,0.1171,0.1101,0.0752,0.0553,0.0575,0.033,0.0221,0.0332,0.0296,0.0485,0.0544,0.06,0.047,-0.0,-0.0,-0.0001,-0.0001,0,0,0.1258,0.1255,0.1266,0.1249,0.1296,0.1284,0.1271,0.1156,0.1038,0.0799,0.0606,0.0483,0.0414,0.0158,0.0123,0.0065,0.0345,0.0051,0.0428,0.0708,0.0766,0.089,0.0742,0,0,0,0,0]},{"header":{"parameterUnit":"m.s-1","parameterCategory":2,"la1":30.2991,"la2":30.254,"lo1":-89.0895,"lo2":-89.0444,"dy":0.0017,"dx":0.0017,"nx":28,"ny":28,"refTime":"2023-04-20T21:00:00:Z","depth":"2","parameterNumber":3,"parameterNumberName":"V-component_of_CURRENTS"},"data":[0,0,0,0,0,0,0,0,0,0,0,0,0,0,0,0,0,0,0,0,0,0,0,0,0,0,0,0,0,0,0,0,0,0,0,0,0,0,0,0,0,0,0,0,0,0,0,0,0,0,0,0,0,0,0,0,0,0,0.0215,0.0215,0,0.0284,0.0286,0.0287,0.0305,0.0304,0.0303,0.0302,0.0257,0.0257,0.0257,0,0,0,0,0,0,0,0,0,0,0,0,0,0.016,0.0161,0.0215,0.0215,0.0215,0.0284,0.0286,0.0287,0.0305,0.0304,0.0303,0.0301,0.0258,0.0257,0.0257,0,0,0,0,0,0,0,0,0,0,0,0,0,0.0207,0.0161,0.0214,0.0229,0.023,0.0284,0.0286,0.0287,0.0305,0.0304,0.0302,0.0301,0.0258,0.0257,0.0257,0.0281,0,0,0.0255,0.0255,0,0,0,0,0,0,0,0,0.0204,0.021,0.0226,0.0228,0.0229,0.028,0.025,0.0278,0.0305,0.0282,0.0302,0.03,0.0252,0.0252,0.0277,0.0279,0.0277,0.0255,0.0255,0.0255,0.0255,0,0,0,0,0,0,0,0.0201,0.0207,0.0248,0.0226,0.0229,0.0253,0.0258,0.0257,0.0276,0.0284,0.0284,0.0284,0.0252,0.0278,0.0276,0.0277,0.0255,0.0255,0.0254,0.0254,0.0234,0.0234,0,0,0,0,0,0,0.018,0.0204,0.0245,0.0249,0.0207,0.0254,0.026,0.0269,0.0278,0.0278,0.0285,0.0284,0.0279,0.0276,0.0274,0.0252,0.0255,0.0254,0.0254,0.0234,0.0234,0.0234,0,0,0,0,0,0,0.0179,0.0184,0.0242,0.0223,0.0231,0.0255,0.0266,0.0271,0.0267,0.0279,0.0277,0.027,0.0278,0.0275,0.0263,0.0252,0.0254,0.0254,0.0234,0.0234,0.0234,0.024,0,0,0,0,0,0,0.0177,0.0183,0.0177,0.0222,0.0232,0.0267,0.0267,0.0273,0.0268,0.0267,0.0267,0.0264,0.0277,0.0264,0.0263,0.0251,0.0253,0.0235,0.0234,0.0234,0.024,0.024,0.0239,0,0,0,0,0,0.0175,0.0186,0.0177,0.0181,0.0225,0.0266,0.0275,0.0291,0.0268,0.0278,0.0273,0.0262,0.0259,0.0264,0.0262,0.025,0.0235,0.0234,0.0234,0.024,0.024,0.0239,0,0,0,0,0,0,0.016,0.0189,0.0181,0.0197,0.0219,0.0267,0.0275,0.0272,0.0281,0.0264,0.0266,0.0265,0.0253,0.0248,0.0252,0.0242,0.0242,0.0241,0.0247,0.0247,0.0246,0.0258,0.0253,0,0,0,0,0,0.015,0.0165,0.0191,0.0201,0.0208,0.023,0.0241,0.0248,0.0262,0.0264,0.0259,0.0251,0.0258,0.0246,0.0255,0.0245,0.0268,0.0233,0.0232,0.0232,0.024,0.027,0.0273,0.0232,0.0232,0.0232,0,0,0.0146,0.0162,0.0169,0.0197,0.0214,0.0239,0.0235,0.0248,0.0259,0.0255,0.0254,0.0252,0.0257,0.0261,0.0252,0.0247,0.0259,0.0232,0.0232,0.024,0.0269,0.0274,0.0278,0.0231,0.0231,0.0232,0,0,0.0159,0.0157,0.0175,0.0194,0.0208,0.0228,0.0219,0.0245,0.0243,0.0246,0.0248,0.0245,0.0235,0.0257,0.0261,0.026,0.0263,0.0236,0.0237,0.0265,0.0269,0.0273,0.0322,0.033,0.0227,0.0227,0.0227,0,0.0145,0.0173,0.0186,0.0208,0.0219,0.0216,0.0235,0.0247,0.026,0.0263,0.0238,0.0253,0.0246,0.0273,0.0267,0.0262,0.0276,0.0239,0.0266,0.0271,0.0275,0.0324,0.0333,0.0228,0.0228,0.0228,0.0228,0,0.0179,0.0192,0.0204,0.023,0.0246,0.0261,0.0273,0.0274,0.0252,0.0266,0.0269,0.0274,0.0282,0.0271,0.0263,0.0282,0.0284,0.0271,0.0271,0.0279,0.033,0.034,0.0228,0.0228,0.0228,0.0228,0,0,0.017,0.0218,0.0218,0.0231,0.0252,0.0274,0.0283,0.0307,0.0315,0.0306,0.0327,0.0322,0.0309,0.0312,0.0301,0.0311,0.0349,0.0286,0.0287,0.0342,0.0418,0.0437,0.045,0.0326,0.0328,0.0329,0.0448,0,0.0184,0.0229,0.0248,0.028,0.03,0.0305,0.0324,0.0339,0.0339,0.0359,0.0357,0.0365,0.0328,0.0316,0.0326,0.0343,0.0369,0.0318,0.0394,0.0398,0.042,0.046,0.0372,0.0471,0.0457,0.0459,0.046,0,0.0205,0.0234,0.0267,0.0306,0.0314,0.0325,0.0348,0.0364,0.0395,0.0392,0.04,0.0399,0.0416,0.0375,0.0424,0.0384,0.0399,0.0414,0.0419,0.0442,0.0434,0.0457,0.0489,0.0476,0.0474,0.0473,0.0472,0,0.0195,0.0243,0.0266,0.0279,0.0324,0.0325,0.0336,0.0364,0.0379,0.0402,0.0413,0.0441,0.0444,0.0467,0.0481,0.0444,0.0551,0.0515,0.0566,0.0568,0.0515,0.0511,0.0569,0.0569,0.0568,0.0568,0.0568,0,0.0205,0.0223,0.0256,0.027,0.0293,0.0314,0.0332,0.0348,0.0377,0.0414,0.0412,0.0455,0.0456,0.0511,0.0522,0.0585,0.059,0.0589,0.0603,0.0516,0.051,0.052,0.0513,0.0572,0.0571,0.0571,0.057,0,0.0195,0.0217,0.0249,0.0284,0.0288,0.0297,0.0318,0.0346,0.0354,0.0402,0.0403,0.0465,0.0544,0.0581,0.0648,0.0641,0.07,0.0723,0.0633,0.0634,0.0691,0.0682,0.0796,0.0797,0.0799,0.08,0.0801,0,0.0204,0.0218,0.0249,0.0266,0.0274,0.0286,0.0307,0.0323,0.0354,0.0425,0.0462,0.0543,0.0666,0.0786,0.0751,0.0811,0.0801,0.0757,0.0673,0.0714,0.0716,0.0705,0.0694,0.0612,0.0612,0.0611,0.0611,0,0.0231,0.0227,0.0257,0.0277,0.0292,0.0323,0.0343,0.0367,0.0407,0.0481,0.0619,0.0731,0.0802,0.0835,0.0856,0.086,0.0734,0.0751,0.0827,0.0565,0.0549,0.0548,0.0542,0.0606,0.0607,0.0607,0.0607,0.0607,0.0251,0.0267,0.0292,0.0312,0.0328,0.0364,0.039,0.046,0.0551,0.0667,0.076,0.0895,0.0878,0.0905,0.0866,0.0739,0.0779,0.0714,0.0711,0.071,0.0665,0.0652,0.0722,0.0723,0.0724,0.0724,0.0725,0,0.0293,0.0304,0.0333,0.0364,0.0389,0.0373,0.0428,0.0487,0.0627,0.0746,0.0909,0.0909,0.0942,0.0874,0.0661,0.0628,0.0573,0.0609,0.0517,0.0522,0.0527,0.0467,0.0475,0.0474,0.0473,0.0473,0,0,0.032,0.036,0.0373,0.0423,0.0421,0.0443,0.0469,0.0588,0.0672,0.0839,0.0888,0.1045,0.0952,0.0777,0.0689,0.0545,0.0546,0.0526,0.0728,0.0633,0.0637,0.0586,0.0502,0,0,0,0,0]}],[{"header":{"parameterUnit":"m.s-1","parameterCategory":2,"la1":30.2991,"la2":30.254,"lo1":-89.0895,"lo2":-89.0444,"dy":0.0017,"dx":0.0017,"nx":28,"ny":28,"refTime":"2023-04-20T21:00:00:Z","depth":"4","parameterNumber":2,"parameterNumberName":"U-component_of_CURRENTS"},"data":[0,0,0,0,0,0,0,0,0,0,0,0,0,0,0,0,0,0,0,0,0,0,0,0,0,0,0,0,0,0,0,0,0,0,0,0,0,0,0,0,0,0,0,0,0,0,0,0,0,0,0,0,0,0,0,0,0,0,-0.0285,-0.0285,0,-0.0241,-0.024,-0.0239,-0.0209,-0.0209,-0.0209,-0.021,-0.0202,-0.0202,-0.0201,0,0,0,0,0,0,0,0,0,0,0,0,0,-0.0303,-0.0303,-0.0285,-0.0285,-0.0285,-0.0241,-0.024,-0.0239,-0.0209,-0.0209,-0.021,-0.021,-0.0202,-0.0202,-0.0201,0,0,0,0,0,0,0,0,0,0,0,0,0,-0.0277,-0.0303,-0.0285,-0.0268,-0.0266,-0.0241,-0.024,-0.0239,-0.0209,-0.0209,-0.021,-0.021,-0.0202,-0.0202,-0.0201,-0.0193,0,0,-0.02,-0.0199,0,0,0,0,0,0,0,0,-0.0279,-0.0276,-0.027,-0.0269,-0.0267,-0.0234,-0.0244,-0.0227,-0.0209,-0.0226,-0.021,-0.021,-0.0219,-0.0217,-0.0202,-0.0193,-0.0193,-0.02,-0.0199,-0.0199,-0.0199,0,0,0,0,0,0,0,-0.0281,-0.0278,-0.0264,-0.027,-0.0268,-0.0248,-0.0245,-0.0239,-0.0219,-0.0225,-0.0224,-0.0225,-0.0217,-0.0202,-0.0202,-0.0193,-0.02,-0.0199,-0.0199,-0.0199,-0.0167,-0.0166,0,0,0,0,0,0,-0.0296,-0.0279,-0.0265,-0.0263,-0.0278,-0.0248,-0.0244,-0.0241,-0.0219,-0.0216,-0.0225,-0.0224,-0.0203,-0.0202,-0.0201,-0.0174,-0.0199,-0.0199,-0.0198,-0.0167,-0.0167,-0.0166,0,0,0,0,0,0,-0.0296,-0.0295,-0.0267,-0.0273,-0.0269,-0.0248,-0.0245,-0.024,-0.0228,-0.0219,-0.0216,-0.0218,-0.0203,-0.0202,-0.0193,-0.0174,-0.0198,-0.0198,-0.0168,-0.0167,-0.0166,-0.013,0,0,0,0,0,0,-0.0297,-0.0295,-0.0302,-0.0274,-0.0269,-0.0254,-0.0245,-0.0239,-0.023,-0.0228,-0.0213,-0.0212,-0.0203,-0.0194,-0.0193,-0.0174,-0.0197,-0.0169,-0.0168,-0.0167,-0.0132,-0.0129,-0.0125,0,0,0,0,0,-0.0298,-0.0308,-0.0302,-0.0301,-0.0278,-0.0255,-0.025,-0.0233,-0.023,-0.0222,-0.021,-0.0212,-0.0187,-0.0193,-0.0192,-0.0172,-0.0169,-0.0168,-0.0167,-0.0134,-0.0129,-0.0125,0,0,0,0,0,0,-0.0323,-0.0305,-0.0298,-0.0304,-0.0282,-0.0251,-0.0253,-0.0235,-0.0217,-0.0221,-0.0207,-0.0205,-0.0193,-0.019,-0.0198,-0.0161,-0.0178,-0.0176,-0.0153,-0.0149,-0.0145,-0.0105,-0.0197,0,0,0,0,0,-0.0332,-0.0334,-0.0308,-0.0314,-0.0306,-0.0278,-0.027,-0.0254,-0.0235,-0.0227,-0.0213,-0.0201,-0.0185,-0.0174,-0.017,-0.0147,-0.0135,-0.0135,-0.0131,-0.0128,-0.0095,-0.0048,-0.0036,-0.0162,-0.0162,-0.0162,0,0,-0.0348,-0.0337,-0.0342,-0.032,-0.0305,-0.0289,-0.0273,-0.0262,-0.0246,-0.0232,-0.0213,-0.0197,-0.0181,-0.0156,-0.0149,-0.0149,-0.0097,-0.0126,-0.0124,-0.0091,-0.0045,-0.0033,-0.0021,-0.0161,-0.0162,-0.0162,0,0,-0.0368,-0.0367,-0.0368,-0.035,-0.0329,-0.0307,-0.0305,-0.0271,-0.0256,-0.0234,-0.0217,-0.0178,-0.017,-0.013,-0.0115,-0.0088,-0.0089,-0.0099,-0.0034,0.001,0.0022,0.0032,0.0018,0.0027,-0.0085,-0.0085,-0.0085,0,-0.0379,-0.038,-0.0365,-0.0353,-0.0344,-0.0316,-0.0306,-0.0283,-0.0249,-0.0228,-0.0232,-0.016,-0.0148,-0.0083,-0.0058,-0.0077,-0.0069,-0.0052,0.0017,0.0028,0.0039,0.0022,0.0032,-0.0084,-0.0084,-0.0084,-0.0084,0,-0.039,-0.039,-0.0391,-0.0366,-0.0352,-0.0343,-0.0311,-0.0294,-0.0274,-0.0234,-0.0177,-0.0133,-0.0071,-0.0069,-0.0046,0.0039,0.001,0.0006,0.0011,0.0054,0.0032,0.0042,-0.0081,-0.0081,-0.0082,-0.0083,0,0,-0.0393,-0.0397,-0.0392,-0.039,-0.0359,-0.0346,-0.0328,-0.0284,-0.0255,-0.0203,-0.0145,-0.0073,-0.0013,0.0013,0.0051,0.011,0.0177,0.0109,0.011,0.0103,0.0242,0.0142,0.0142,0.0192,0.0195,0.0197,0.0182,0,-0.0394,-0.0394,-0.0389,-0.0381,-0.0374,-0.0352,-0.0335,-0.0294,-0.0247,-0.0186,-0.0105,-0.0034,0.0006,0.0059,0.013,0.0165,0.0213,0.018,0.0197,0.0197,0.0111,0.0155,0.0207,0.0189,0.0191,0.0192,0.0194,0,-0.0383,-0.0389,-0.0392,-0.0389,-0.0383,-0.0372,-0.033,-0.0305,-0.0218,-0.0173,-0.0062,0.0006,0.013,0.0145,0.026,0.0239,0.0265,0.0281,0.028,0.0195,0.0118,0.0148,0.0211,0.0209,0.0208,0.0207,0.0206,0,-0.038,-0.038,-0.039,-0.0387,-0.038,-0.0376,-0.0359,-0.0294,-0.0258,-0.0134,-0.0077,0.0059,0.0135,0.0214,0.0261,0.0283,0.0333,0.0352,0.0277,0.0266,0.0345,0.0334,0.0438,0.0438,0.0438,0.0438,0.0438,0,-0.037,-0.0376,-0.0392,-0.0397,-0.0395,-0.0381,-0.0347,-0.0309,-0.0231,-0.017,-0.0044,0.0023,0.0168,0.0211,0.0258,0.0272,0.0328,0.0306,0.0277,0.0349,0.034,0.0348,0.0337,0.0437,0.0437,0.0437,0.0438,0,-0.0364,-0.0377,-0.0389,-0.0398,-0.0395,-0.0389,-0.0353,-0.0317,-0.0243,-0.0159,-0.0108,0.0014,0.0081,0.0148,0.0235,0.0247,0.027,0.025,0.027,0.0238,0.0179,0.0171,0.0218,0.0215,0.0212,0.021,0.0208,0,-0.0369,-0.0375,-0.0392,-0.0392,-0.0398,-0.0384,-0.0367,-0.0316,-0.0276,-0.0181,-0.0145,-0.0054,0.0025,0.0059,0.0118,0.016,0.0169,0.0165,0.0261,0.0201,0.0168,0.0163,0.0159,0.0203,0.0203,0.0202,0.0201,0,-0.0379,-0.0386,-0.0398,-0.0397,-0.039,-0.0376,-0.0353,-0.0329,-0.0266,-0.0207,-0.0136,-0.0073,-0.0031,0.0036,0.0038,0.0073,0.0173,0.0138,0.0147,0.0238,0.0183,0.0152,0.0151,0.0192,0.0193,0.0194,0.0195,0,-0.0385,-0.0394,-0.0403,-0.0396,-0.0387,-0.0367,-0.0356,-0.0315,-0.0276,-0.0178,-0.0182,-0.0099,-0.0044,-0.0017,-0.0024,0.0002,0.0056,0.0092,0.0105,0.0116,0.009,0.0007,-0.0044,0,0,0,0,0,-0.0382,-0.0388,-0.0394,-0.0386,-0.0373,-0.0367,-0.0343,-0.033,-0.0289,-0.0232,-0.0195,-0.0152,-0.0097,-0.0083,-0.0062,-0.0075,0.0036,-0.0056,0.0078,0.014,0.0151,0.0131,0,0,0,0,0,0,-0.0378,-0.039,-0.0398,-0.0375,-0.0363,-0.0347,-0.0336,-0.031,-0.0281,-0.0233,-0.0202,-0.0161,-0.0116,-0.0096,-0.0061,-0.0057,0.0025,-0.0025,-0.0025,0.0134,0.0144,0.0153,0.0136,0,0,0,0,0]},{"header":{"parameterUnit":"m.s-1","parameterCategory":2,"la1":30.2991,"la2":30.254,"lo1":-89.0895,"lo2":-89.0444,"dy":0.0017,"dx":0.0017,"nx":28,"ny":28,"refTime":"2023-04-20T21:00:00:Z","depth":"4","parameterNumber":3,"parameterNumberName":"V-component_of_CURRENTS"},"data":[0,0,0,0,0,0,0,0,0,0,0,0,0,0,0,0,0,0,0,0,0,0,0,0,0,0,0,0,0,0,0,0,0,0,0,0,0,0,0,0,0,0,0,0,0,0,0,0,0,0,0,0,0,0,0,0,0,0,0.063,0.0631,0,0.0681,0.0682,0.0682,0.0714,0.0714,0.0714,0.0714,0.0762,0.0763,0.0764,0,0,0,0,0,0,0,0,0,0,0,0,0,0.0543,0.0545,0.063,0.0631,0.0631,0.0681,0.0682,0.0683,0.0714,0.0714,0.0714,0.0714,0.0761,0.0763,0.0764,0,0,0,0,0,0,0,0,0,0,0,0,0,0.0588,0.0545,0.063,0.0652,0.0654,0.0681,0.0682,0.0683,0.0714,0.0714,0.0714,0.0714,0.0761,0.0763,0.0765,0.0775,0,0,0.077,0.0771,0,0,0,0,0,0,0,0,0.0585,0.0591,0.0648,0.065,0.0653,0.069,0.0668,0.0713,0.0714,0.0693,0.0714,0.0714,0.0736,0.074,0.0752,0.0777,0.0779,0.077,0.0772,0.0772,0.0773,0,0,0,0,0,0,0,0.0582,0.0589,0.0652,0.0649,0.0652,0.0653,0.066,0.0677,0.0715,0.0695,0.0697,0.07,0.0738,0.075,0.0753,0.078,0.077,0.0772,0.0773,0.0774,0.0824,0.0824,0,0,0,0,0,0,0.0574,0.0586,0.065,0.0653,0.0617,0.0654,0.0662,0.0679,0.0715,0.072,0.07,0.0701,0.0747,0.0751,0.0755,0.0805,0.0772,0.0774,0.0775,0.0823,0.0824,0.0824,0,0,0,0,0,0,0.0572,0.058,0.0648,0.0619,0.0627,0.0656,0.0675,0.068,0.0696,0.0719,0.0724,0.0711,0.0747,0.0752,0.0775,0.0806,0.0775,0.0777,0.0823,0.0824,0.0824,0.0882,0,0,0,0,0,0,0.057,0.0579,0.0589,0.0619,0.0629,0.0662,0.0675,0.0681,0.0697,0.07,0.0729,0.0734,0.0748,0.0772,0.0777,0.0808,0.0778,0.0823,0.0823,0.0824,0.088,0.0884,0.0888,0,0,0,0,0,0.0567,0.0576,0.059,0.0598,0.0642,0.0661,0.0667,0.0688,0.0698,0.0703,0.0726,0.0733,0.0778,0.0774,0.0779,0.0811,0.0823,0.0823,0.0824,0.0878,0.0883,0.0888,0,0,0,0,0,0,0.0541,0.0581,0.0597,0.0618,0.0638,0.0666,0.0675,0.0689,0.0713,0.0716,0.0739,0.0745,0.0778,0.0776,0.0771,0.0822,0.08,0.0802,0.0839,0.0844,0.0848,0.0879,0.078,0,0,0,0,0,0.0541,0.0564,0.0594,0.0612,0.0622,0.065,0.0661,0.0674,0.0697,0.0708,0.0736,0.0757,0.0784,0.0798,0.0816,0.0843,0.0827,0.0863,0.0867,0.0871,0.0897,0.0869,0.0873,0.0826,0.0826,0.0826,0,0,0.0535,0.0561,0.0573,0.0608,0.0629,0.0647,0.0658,0.0673,0.0697,0.0708,0.0753,0.0774,0.0792,0.083,0.0844,0.0834,0.0875,0.0872,0.0875,0.09,0.087,0.0874,0.0879,0.0826,0.0826,0.0826,0,0,0.053,0.056,0.0574,0.0594,0.0622,0.0641,0.0645,0.0679,0.0704,0.074,0.0761,0.0804,0.0833,0.087,0.0887,0.092,0.0896,0.0913,0.0968,0.0939,0.0943,0.0947,0.093,0.0931,0.0917,0.0917,0.0917,0,0.0522,0.0552,0.0578,0.0597,0.0617,0.0639,0.0656,0.0684,0.0724,0.0755,0.0755,0.0837,0.0861,0.0922,0.095,0.0937,0.0908,0.0952,0.0946,0.0949,0.0952,0.0933,0.0934,0.092,0.0919,0.0919,0.0919,0,0.0527,0.0555,0.0565,0.0606,0.0625,0.0643,0.068,0.0706,0.074,0.0782,0.0849,0.0889,0.0946,0.0956,0.0977,0.1019,0.0988,0.0953,0.0938,0.096,0.0939,0.0939,0.0924,0.0923,0.0922,0.0921,0,0,0.0507,0.056,0.0566,0.059,0.0634,0.065,0.069,0.0743,0.0784,0.0837,0.0892,0.098,0.102,0.1043,0.1067,0.1065,0.1077,0.1031,0.1028,0.1023,0.1012,0.0911,0.0901,0.1025,0.1025,0.1025,0.0989,0,0.051,0.0548,0.0573,0.0611,0.0637,0.0671,0.0714,0.0764,0.0816,0.0873,0.0936,0.1008,0.1044,0.1086,0.1094,0.1083,0.1079,0.1091,0.0984,0.0982,0.0897,0.0899,0.1027,0.0989,0.0989,0.0988,0.0988,0,0.051,0.054,0.0578,0.0635,0.0649,0.068,0.0751,0.0799,0.0882,0.0924,0.1004,0.1045,0.1123,0.1111,0.1124,0.1122,0.109,0.1063,0.1059,0.0951,0.0881,0.096,0.0988,0.0988,0.0988,0.0988,0.0988,0,0.0492,0.0544,0.0578,0.0598,0.0662,0.0695,0.0748,0.0831,0.0888,0.0981,0.1019,0.109,0.114,0.1111,0.1107,0.1109,0.1057,0.1039,0.0917,0.091,0.0988,0.0985,0.1018,0.1018,0.1018,0.1018,0.1018,0,0.0489,0.0517,0.0581,0.0601,0.0656,0.0712,0.0789,0.0845,0.0936,0.0997,0.1074,0.1098,0.1139,0.112,0.109,0.1006,0.1046,0.0938,0.0892,0.1012,0.1012,0.0988,0.0985,0.1017,0.1017,0.1017,0.1018,0,0.046,0.0505,0.0544,0.0617,0.0652,0.0701,0.0819,0.0877,0.0968,0.1036,0.1072,0.1125,0.11,0.1095,0.104,0.0988,0.0909,0.0858,0.0999,0.096,0.0789,0.079,0.0734,0.073,0.0727,0.0724,0.0722,0,0.0444,0.0465,0.0545,0.0587,0.0629,0.0719,0.0786,0.0893,0.0938,0.1025,0.1029,0.1055,0.1067,0.0926,0.091,0.0827,0.0805,0.0771,0.0795,0.0799,0.076,0.0766,0.0771,0.0717,0.0716,0.0715,0.0714,0,0.0412,0.0447,0.0482,0.057,0.0645,0.0711,0.0802,0.0824,0.0927,0.1,0.0982,0.0959,0.091,0.0857,0.08,0.0733,0.08,0.0736,0.0743,0.0766,0.0777,0.0743,0.0752,0.0703,0.0705,0.0706,0.0706,0,0.039,0.0407,0.0474,0.0552,0.0635,0.0688,0.0734,0.0776,0.0832,0.0911,0.088,0.0881,0.0905,0.0802,0.0729,0.0676,0.0665,0.0641,0.0654,0.0666,0.0652,0.0657,0.0511,0,0,0,0,0,0.0375,0.0412,0.0466,0.0546,0.062,0.0679,0.0739,0.0774,0.0838,0.0813,0.0856,0.0803,0.0731,0.0704,0.0629,0.066,0.0651,0.0565,0.0629,0.0639,0.0653,0.0638,0,0,0,0,0,0,0.0375,0.0424,0.0454,0.0533,0.0589,0.0668,0.0705,0.0741,0.0711,0.0767,0.0723,0.0761,0.0686,0.0787,0.0627,0.0615,0.0632,0.0558,0.0555,0.0632,0.0644,0.0655,0.0645,0,0,0,0,0]}]]